OBJECT G, 62615

Orbit data source: Space-Track

You're viewing an Uncataloged Satellite

Recently launched and/or uncataloged satellites may have evolving metadata. Metadata may include but not limited to: Owner, Maufacturer, Bus, Motor, and Mission.

OBJECT G, 62615 is a satellite in SSO that was launched on Tue, 14 Jan 2025 UTC via an FALCON 9 launch vehicle from the Air Force Western Test Range (AFWTR). Unknown objects in Earth's orbit typically refer to objects detected orbiting the Earth but have not yet been identified or cataloged. These objects could be anything from previously untracked satellites, spent rocket stages, debris from satellite collisions, or even natural meteoroids temporarily captured by Earth's gravity.

Loading next visibility...
Identifier
62615, 2025-009G
Orbit
SSO
Country
Flag of TBDTBD
Related business
None
Manufacturer
Unknown
Mission
Operational Commercial Weather
Bus & Motor
Unknown
Mass
Unknown
Launch date (UTC)
2025-01-14 (1 year ago)
Launch vehicle
FALCON 9
Launch site
Air Force Western Test Range (AFWTR)
Object type
Unknown
Shape & HBR
Box, 0.4 m
Radar Cross Section
0.015 m², Medium (>0.1 m² and < 1m²)

Expand to show TLE details & history
Last TLE update: 11 hours ago

TLE from 11 hours ago
0 OBJECT G
1 62615U 25009G   26074.52414613  .00006935  00000-0  28480-3 0  9999
2 62615  97.3989 155.5947 0004903 304.8540  55.2236 15.24511146 64523
Epoch: 2026-03-15T12:34Z
TLE epoch observation values (Epoch: 2026-03-15T12:34:46.225Z)
Latitude
-0.00004°
Longitude
153.77236°
Altitude
493.43 km
Speed
7.619 km/s
True Right ascension
10h 22m 22s
True Declination
0° 00' 00"
Sunlit
Object was in full shadow at epoch
Visualization orbit readout
Latitude
Unknown
Longitude
Unknown
Altitude
Unknown
Speed
Unknown
Apparent Right ascension
Unknown
Apparent Declination
Unknown
Sunlit
N/A
Visualization observer readout
Local Sidereal Time
03:51:53
Azimuth
Unknown
Elevation
Unknown
Doppler factor
Unknown
Orbital elements
Apogee altitude
492.58 km
Perigee altitude
485.846 km
Semi-major axis
6,867.35 km
Eccentricity
0.00049
Inclination
97.3989°
RAAN
155.5947°
Arg. of periapsis
304.854°
True anomaly
55.26976°
Mean anomaly
55.2236°
Eccentric anomaly
55.24668°
Mean motion
3.81381 °/min
Orbital period
94.39 mins
BSTAR
0.0002848
Loading maneuver chart data...
Computing Atmospheric mass density...
Loading historical data...
Loading historical data...
Loading historical data...
Loading historical data...
Loading historical data...
Loading historical data...
Loading historical data...

Documentation

Showing up to 5 results
|